Rutherford County, North Carolina, United States
Lat: 35.39N, Lon: 81.98W
Wx Zone: NCZ508
Local Info
Past Weather Observations for Today

NOTE: This archive is for the closest National Weather Service station to Rutherford County. Information may differ from the station used for current weather conditions.

Click here for Long-term Archive

Time Weather Temperature Dewpoint Humidity Pressure Winds Precip Visibility
20:35
Overcast
43°F / 6°C 28°F / -2°C 57% 29.86 in
(1011 mb)
Calm - 10SM
20:15
Overcast
43°F / 6°C 30°F / -1°C 61% 29.86 in
(1011 mb)
NW 3.5 mph
(NW 6 kph)
- 10SM
19:55
Overcast
45°F / 7°C 28°F / -2°C 53% 29.83 in
(1010 mb)
Calm - 10SM
19:35
Overcast
45°F / 7°C 27°F / -3°C 49% 29.83 in
(1010 mb)
Calm - 10SM
19:15
Overcast
46°F / 8°C 27°F / -3°C 46% 29.83 in
(1010 mb)
Calm - 10SM
18:55
Overcast
46°F / 8°C 27°F / -3°C 46% 29.8 in
(1009 mb)
NNW 3.5 mph
(NNW 6 kph)
- 10SM
18:35
Overcast
48°F / 9°C 25°F / -4°C 40% 29.8 in
(1009 mb)
N 6.9 mph
(N 11 kph)
- 10SM
18:15
Overcast
48°F / 9°C 27°F / -3°C 43% 29.8 in
(1009 mb)
N 9.2 mph
(N 15 kph)
- 10SM
17:55
Overcast
48°F / 9°C 27°F / -3°C 43% 29.8 in
(1009 mb)
N 11.5 mph
(N 19 kph)
- 10SM
17:35
Overcast
48°F / 9°C 28°F / -2°C 46% 29.8 in
(1009 mb)
N 9.2 mph
(N 15 kph)
- 10SM
17:15
Overcast
48°F / 9°C 28°F / -2°C 46% 29.77 in
(1008 mb)
N 9.2 mph
(N 15 kph)
- 10SM
16:55
Overcast
50°F / 10°C 30°F / -1°C 47% 29.77 in
(1008 mb)
NNE 5.8 mph
(NNE 9 kph)
- 10SM
16:35
Overcast
48°F / 9°C 30°F / -1°C 50% 29.77 in
(1008 mb)
NNE 8.1 mph
(NNE 13 kph)
- 10SM
16:15
Overcast
48°F / 9°C 30°F / -1°C 50% 29.77 in
(1008 mb)
N 9.2 mph
(N 15 kph)
- 10SM
15:55
Overcast
46°F / 8°C 32°F / 0°C 57% 29.77 in
(1008 mb)
N 9.2 mph
(N 15 kph)
- 10SM
15:35
Overcast
Light Rain
46°F / 8°C 32°F / 0°C 57% 29.77 in
(1008 mb)
N 6.9 mph
(N 11 kph)
- 10SM
15:15
Overcast
46°F / 8°C 36°F / 2°C 66% 29.77 in
(1008 mb)
N 6.9 mph
(N 11 kph)
- 10SM
14:55
Overcast
45°F / 7°C 39°F / 4°C 81% 29.77 in
(1008 mb)
Calm 0.02 in
(0.51 mm)
10SM
14:35
Overcast
Light Rain
45°F / 7°C 37°F / 3°C 76% 29.77 in
(1008 mb)
N 5.8 mph
(N 9 kph)
0.02 in
(0.51 mm)
10SM
14:15
Overcast
Light Rain
45°F / 7°C 37°F / 3°C 76% 29.8 in
(1009 mb)
NNE 9.2 mph
(NNE 15 kph)
0.01 in
(0.25 mm)
7SM
13:55
Overcast
Rain
45°F / 7°C 39°F / 4°C 81% 29.8 in
(1009 mb)
N 9.2 mph
(N 15 kph)
0.03 in
(0.76 mm)
5SM
13:35
Overcast
Drizzle
46°F / 8°C 39°F / 4°C 76% 29.8 in
(1009 mb)
N 9.2 mph
(N 15 kph)
0.01 in
(0.25 mm)
10SM
13:15
Overcast
Rain
46°F / 8°C 37°F / 3°C 71% 29.8 in
(1009 mb)
N 10.4 mph
(N 17 kph)
- 10SM
12:55
Overcast
48°F / 9°C 37°F / 3°C 66% 29.77 in
(1008 mb)
N 8.1 mph
(N 13 kph)
- 10SM
12:35
Overcast
50°F / 10°C 36°F / 2°C 58% 29.77 in
(1008 mb)
N 10.4 mph
(N 17 kph)
- 10SM
12:15
Overcast
50°F / 10°C 39°F / 4°C 67% 29.77 in
(1008 mb)
N 6.9 mph
(N 11 kph)
- 10SM
11:55
Overcast
48°F / 9°C 39°F / 4°C 71% 29.77 in
(1008 mb)
NE 4.6 mph
(NE 7 kph)
- 10SM
11:35
Overcast
48°F / 9°C 41°F / 5°C 76% 29.8 in
(1009 mb)
NE 4.6 mph
(NE 7 kph)
- 10SM
11:15
Overcast
48°F / 9°C 41°F / 5°C 76% 29.77 in
(1008 mb)
NNE 4.6 mph
(NNE 7 kph)
- 10SM
10:55
Overcast
48°F / 9°C 41°F / 5°C 76% 29.77 in
(1008 mb)
NE 5.8 mph
(NE 9 kph)
- 10SM
10:35
Overcast
48°F / 9°C 41°F / 5°C 76% 29.77 in
(1008 mb)
NE 5.8 mph
(NE 9 kph)
- 10SM
10:15
Overcast
46°F / 8°C 43°F / 6°C 87% 29.8 in
(1009 mb)
NNE 5.8 mph
(NNE 9 kph)
- 10SM
09:55
Overcast
46°F / 8°C 43°F / 6°C 87% 29.77 in
(1008 mb)
NE 4.6 mph
(NE 7 kph)
- 10SM
09:35
Overcast
46°F / 8°C 43°F / 6°C 87% 29.77 in
(1008 mb)
NE 6.9 mph
(NE 11 kph)
- 10SM
09:15
Overcast
Drizzle
46°F / 8°C 43°F / 6°C 87% 29.77 in
(1008 mb)
N 5.8 mph
(N 9 kph)
- 10SM
08:55
Overcast
Light Rain
46°F / 8°C 45°F / 7°C 93% 29.77 in
(1008 mb)
NNE 5.8 mph
(NNE 9 kph)
0.07 in
(1.78 mm)
10SM
08:35
Overcast
Heavy Rain
46°F / 8°C 45°F / 7°C 93% 29.77 in
(1008 mb)
N 5.8 mph
(N 9 kph)
0.05 in
(1.27 mm)
3SM
08:15
Overcast
Rain
46°F / 8°C 45°F / 7°C 93% 29.77 in
(1008 mb)
NNE 6.9 mph
(NNE 11 kph)
0.02 in
(0.51 mm)
5SM
07:55
Overcast
Light Rain
46°F / 8°C 45°F / 7°C 93% 29.77 in
(1008 mb)
N 8.1 mph
(N 13 kph)
0.04 in
(1.02 mm)
10SM
07:35
Overcast
Rain
46°F / 8°C 45°F / 7°C 93% 29.77 in
(1008 mb)
N 6.9 mph
(N 11 kph)
0.03 in
(0.76 mm)
7SM
07:15
Overcast
Light Rain
46°F / 8°C 45°F / 7°C 93% 29.77 in
(1008 mb)
N 8.1 mph
(N 13 kph)
0.01 in
(0.25 mm)
7SM
06:55
Overcast
Rain
46°F / 8°C 45°F / 7°C 93% 29.74 in
(1007 mb)
N 9.2 mph
(N 15 kph)
0.08 in
(2.03 mm)
5SM
06:35
Overcast
Rain
48°F / 9°C 45°F / 7°C 87% 29.74 in
(1007 mb)
NE 6.9 mph
(NE 11 kph)
0.03 in
(0.76 mm)
7SM
06:15
Overcast
Rain
50°F / 10°C 43°F / 6°C 76% 29.71 in
(1006 mb)
N 4.6 mph
(N 7 kph)
0.01 in
(0.25 mm)
7SM
05:55
Overcast
50°F / 10°C 43°F / 6°C 76% 29.71 in
(1006 mb)
N 5.8 mph
(N 9 kph)
- 10SM
05:35
Overcast
Light Rain
50°F / 10°C 43°F / 6°C 76% 29.68 in
(1005 mb)
NE 10.4 mph
(NE 17 kph)
- 10SM
05:15
Overcast
Light Rain
52°F / 11°C 43°F / 6°C 72% 29.71 in
(1006 mb)
N 8.1 mph
(N 13 kph)
- 10SM
04:55
Overcast
Drizzle
52°F / 11°C 43°F / 6°C 72% 29.68 in
(1005 mb)
N 5.8 mph
(N 9 kph)
- 10SM
04:35
Overcast
Rain
54°F / 12°C 43°F / 6°C 67% 29.71 in
(1006 mb)
NNW 4.6 mph
(NNW 7 kph)
- 10SM
04:15
Overcast
Light Rain
54°F / 12°C 41°F / 5°C 63% 29.68 in
(1005 mb)
NE 6.9 mph
(NE 11 kph)
- 10SM
03:55
Overcast
55°F / 13°C 41°F / 5°C 59% 29.68 in
(1005 mb)
NE 3.5 mph
(NE 6 kph)
- 10SM
03:35
Overcast
55°F / 13°C 41°F / 5°C 59% 29.68 in
(1005 mb)
NNE 5.8 mph
(NNE 9 kph)
- 10SM
03:15
Overcast
55°F / 13°C 43°F / 6°C 63% 29.71 in
(1006 mb)
N 6.9 mph
(N 11 kph)
- 10SM
02:55
Overcast
55°F / 13°C 43°F / 6°C 63% 29.71 in
(1006 mb)
N 4.6 mph
(N 7 kph)
- 10SM
02:35
Mostly Cloudy
57°F / 14°C 45°F / 7°C 63% 29.71 in
(1006 mb)
N 5.8 mph
(N 9 kph)
- 10SM
02:15
Overcast
57°F / 14°C 45°F / 7°C 63% 29.71 in
(1006 mb)
N 6.9 mph
(N 11 kph)
- 10SM
01:55
Overcast
59°F / 15°C 48°F / 9°C 68% 29.71 in
(1006 mb)
N 3.5 mph
(N 6 kph)
- 10SM
01:35
Overcast
59°F / 15°C 50°F / 10°C 72% 29.71 in
(1006 mb)
N 8.1 mph
(N 13 kph)
- 10SM
01:15
Overcast
61°F / 16°C 52°F / 11°C 72% 29.71 in
(1006 mb)
WNW 6.9 mph
(WNW 11 kph)
- 10SM
00:55
Overcast
63°F / 17°C 52°F / 11°C 68% 29.71 in
(1006 mb)
W 5.8 mph
(W 9 kph)
- 10SM
00:35
Mostly Cloudy
63°F / 17°C 52°F / 11°C 68% 29.71 in
(1006 mb)
SSW 8.1 mph
(SSW 13 kph)
- 10SM
00:15
Partly Cloudy
61°F / 16°C 50°F / 10°C 68% 29.71 in
(1006 mb)
SW 5.8 mph
(SW 9 kph)
- 10SM
Time Weather Temperature Dewpoint Humidity Pressure Winds Precip Visibility


Weather for websites

WeatherForYou.com, LLC is not responsible for any damages or problems caused by this service. Current weather conditions are obtained from the closest station including government and personal stations which may have varying degrees of accuracy. Weather forecasts are derived from the NOAA NDFD. Like all things, this site belongs to Jesus Christ... He just trusts me to maintain it. If you have any questions or comments email webmaster@weatherforyou.com

Copyright © 2015, WeatherForYou.com LLC. All rights reserved.